Regional Weather Roundup
Issued by NWS

Home | Current Version | Previous Version | Graphics & Text | Print | Product List | Glossary On
Versions: 1 2 3 4 5 6 7 8 9 10 11 12 13 14 15 16 17 18 19 20 21 22 23 24 25 26 27 28 29 30 31 32 33 34 35 36 37 38 39 40 41 42 43 44 45 46 47 48 49 50
000
ASUS43 KMPX 211301
RWRMN
WEATHER ROUNDUP FOR MINNESOTA
NATIONAL WEATHER SERVICE TWIN CITIES/CHANHASSEN MN
800 AM CDT SAT APR 21 2018


NOTE: "FAIR" INDICATES FEW OR NO CLOUDS BELOW 12,000 FEET WITH NO
SIGNIFICANT WEATHER AND/OR OBSTRUCTIONS TO VISIBILITY. N/A MEANS
CURRENT SKY AND/OR WEATHER CONDITIONS ARE NOT AVAILABLE.

MNZ060>063-068>070-211400-
   Twin Cities Metro

CITY           SKY/WX    TMP DP  RH WIND       PRES   REMARKS
TWIN CITIES    PTSUNNY   39  29  67 NE3       30.44S
ST PAUL        FAIR      37  31  78 CALM      30.45S
CRYSTAL        FAIR      35  28  75 CALM      30.43S
BLAINE         PTSUNNY   36  30  80 CALM      30.44R
LAKEVILLE      FAIR      32  28  86 CALM      30.43S
EDEN PRAIRIE   FAIR      37  29  72 NE3       30.42F
SOUTH ST PAUL  FAIR      37  29  73 CALM      30.44S
LAKE ELMO      FAIR      34  30  86 CALM      30.45S
$$
MNZ001>005-007-008-013>017-022>024-027-028-211400-
   Northwest Minnesota

CITY           SKY/WX    TMP DP  RH WIND       PRES   REMARKS
BEMIDJI        FAIR      35  29  80 CALM      30.39S
HALLOCK        FAIR      37  36  93 S10       30.33S FOG
ROSEAU         CLOUDY    37  34  87 S9        30.36R
WARROAD        FAIR      37  34  87 S3        30.36S
THIEF RVR FALL PTSUNNY   36  32  85 S8        30.37S
CROOKSTON      CLOUDY    37  34  87 S9        30.38S
FOSSTON        FAIR      37  30  75 S7        30.38S
DETROIT LAKES  FAIR      36  32  87 CALM      30.39S
MOORHEAD       FAIR      36  30  80 S7        30.40R
PARK RAPIDS    FAIR      34  29  82 SE3       30.40R
MAHNOMEN       CLOUDY    35  31  88 SE7       30.38S WCI  29
$$
MNZ006-009>011-018-025>026-211400-
   North Central Minnesota

CITY           SKY/WX    TMP DP  RH WIND       PRES   REMARKS
BAUDETTE       FAIR      36  33  89 CALM      30.37S
FLAG ISLAND    FAIR      34  28  80 SE6       30.36R WCI  29
INTL FALLS     FAIR      36  29  75 CALM      30.38S
WASKISH        FAIR      37  30  75 CALM      30.38S
BIG FORK       FAIR      32  27  80 CALM      30.40R
LONGVILLE      FAIR      28  27  93 CALM      30.41S
GRAND RAPIDS   FAIR      35  25  66 CALM      30.43R
CRANE LAKE     FAIR      28  25  86 CALM      30.41S
ORR            FAIR      36  19  51 CALM      30.37S
COOK           FAIR      37  23  56 CALM      30.40S
WALKER         FAIR      33  27  80 CALM      30.40S
$$
MNZ012-019>021-037-211400-
   Northeast Minnesota

CITY           SKY/WX    TMP DP  RH WIND       PRES   REMARKS
DULUTH         FAIR      41  28  60 NW3       30.41R
ELY            FAIR      32  25  74 CALM      30.39S
HIBBING        FAIR      33  22  63 CALM      30.40R
EVELETH        FAIR      33  24  70 CALM      30.41S
DULUTH HARBOR  FAIR      37  27  65 SW5       30.43S
TWO HARBORS    FAIR      43  27  52 CALM      30.39S
SILVER BAY     FAIR      41  27  56 CALM      30.38S
GRAND MARAIS     N/A     37  26  64 SW3       30.40S
G MARAIS ARPRT FAIR      41  19  42 CALM      30.38S
$$
MNZ029>031-032-039>041-046>048-054>057-064-211400-
   West Central Minnesota

CITY           SKY/WX    TMP DP  RH WIND       PRES   REMARKS
FERGUS FALLS   FAIR      36  30  80 SE7       30.39S
WHEATON        CLOUDY    34  30  86 SE8       30.42R FOG     WCI  27
MORRIS         CLOUDY    34  30  86 SE6       30.39S WCI  29
ALEXANDRIA     FAIR      39  29  67 S6        30.41R
ELBOW LAKE     FAIR      35  29  80 SE6       30.41R WCI  30
WADENA         FAIR      34  30  86 CALM      30.40S
GLENWOOD       FAIR      34  30  86 CALM      30.41F
APPLETON       CLOUDY    36  30  80 E6        30.40S
BENSON         CLOUDY    39  28  65 SE5       30.43R
ORTONVILLE     MOSUNNY   34  30  86 E5        30.39S WCI  30
MADISON        MOSUNNY   36  34  93 E3        30.40R FOG
WILLMAR        FAIR      36  30  80 E5        30.44S
$$
MNZ033>034-036-042>043-049>051-058-059-211400-
   Central Minnesota

CITY           SKY/WX    TMP DP  RH WIND       PRES   REMARKS
ST CLOUD       FAIR      32  28  85 CALM      30.44R
SAUK CENTRE    FAIR      34  32  91 CALM      30.42S
PAYNESVILLE    FAIR      35  32  91 CALM      30.43S
AITKIN         FAIR      32  27  80 CALM      30.41S
PINE RIVER     FAIR      30  25  80 CALM      30.44S
BRAINERD       FAIR      33  27  78 CALM      30.43R
STAPLES        FAIR      32  30  93 CALM      30.42R
LONG PRAIRIE   FAIR      32  32 100 CALM      30.43R FOG
LITTLE FALLS   FAIR      34  27  75 CALM      30.44R
LITCHFIELD     FAIR      37  32  81 CALM      30.43S
BUFFALO        FAIR      34  30  84 CALM      30.44F
MAPLE LAKE     FAIR      35  32  90 CALM      30.44F
HUTCHINSON     FAIR      37  31  81 NE3       30.43F
$$
MNZ037-044-045-052-053-211400-
   East Central Minnesota

CITY           SKY/WX    TMP DP  RH WIND       PRES   REMARKS
PRINCETON      FAIR      36  28  75 CALM      30.45S
MORA           FAIR      32  27  80 CALM      30.46R
CAMBRIDGE      FAIR      36  25  64 CALM      30.45S
RUSH CITY      FAIR      35  26  69 CALM      30.45R
MOOSE LAKE     FAIR      32  25  74 CALM      30.42R
HINCKLEY       FAIR      32  28  86 CALM      30.44S
CLOQUET        FAIR      37  27  65 CALM      30.41S
MCGREGOR       FAIR      32  30  93 CALM      30.43S
$$
MNZ071>073-080-081-089-090-097-098-211400-
   Southwest Minnesota

CITY           SKY/WX    TMP DP  RH WIND       PRES   REMARKS
MONTEVIDEO     MOSUNNY   36  32  87 SE5       30.40F
GRANITE FALLS  CLOUDY    37  32  81 CALM      30.41S
CANBY          CLOUDY    35  33  91 CALM      30.41R
MARSHALL       PTSUNNY   37  31  78 CALM      30.40R
REDWOOD FALLS  CLOUDY    36  29  75 E6        30.40S
OLIVIA         MOSUNNY   36  30  80 NE5       30.40F
PIPESTONE      CLOUDY   N/A N/A N/A E3        30.36R
WINDOM         CLOUDY    37  21  52 CALM      30.38S
WORTHINGTON    CLOUDY    36  30  79 SE5       30.37S
JACKSON        CLOUDY    36  28  75 E7        30.38S
TRACY          CLOUDY    36  32  85 CALM      30.39R
SLAYTON        CLOUDY    36  31  85 CALM      30.38R
$$
MNZ065>067-074>077-082>085-091>093-211400-
   South Central Minnesota

CITY           SKY/WX    TMP DP  RH WIND       PRES   REMARKS
MANKATO        FAIR      37  29  72 NE7       30.42R
NEW ULM        CLOUDY    37  28  70 E3        30.41R
ST JAMES       CLOUDY    36  30  80 E3        30.41R
FAIRMONT       CLOUDY    36  29  75 NE6       30.40R
GLENCOE        FAIR      35  31  85 N3        30.42F
OWATONNA       FAIR      37  28  70 NE6       30.41R
WASECA         CLOUDY    36  30  80 N8        30.42R
ALBERT LEA     FAIR      37  25  60 CALM      30.39F
$$
MNZ078>079-086>088-094>096-211400-
   Southeast Minnesota

CITY           SKY/WX    TMP DP  RH WIND       PRES   REMARKS
ROCHESTER      CLOUDY    38  28  67 E3        30.41F
RED WING       FAIR      36  28  75 CALM      30.43F
STANTON        FAIR      33  31  91 NE3       30.42F
DODGE CENTER   PTSUNNY   36  28  75 CALM      30.40F
WINONA         FAIR      36  32  87 CALM      30.43S
AUSTIN         FAIR      37  28  70 SE5       30.40S
PRESTON        CLOUDY    39  26  57 SE6       30.42S
$$
ABBREVIATIONS USED IN REMARKS
   TC - TEMPERATURES IN CELSIUS
  WCI - WIND CHILL INDEX
   HX - HEAT INDEX
  VSB - VISIBILITY
$$




USA.gov is the U.S. government's official web portal to all federal, state and local government web resources and services.